Location: Dob?e?
(49.9411°N, 15.1496°E)
Time: 19:09:04
(UTC+00:00)

BEESAT 3 - Visible Passes

Search period start: 21 October 2021 00:00
Search period end: 31 October 2021 00:00
Orbit: 481 x 510 km, 64.9° (Epoch: 21 October)

Date Brightness Start Highest point End Pass type
(mag) Time Alt. Az. Time Alt. Az. Time Alt. Az.
25 Oct ? 05:01:30 10° SSE 05:04:09 18° ESE 05:06:48 10° ENE visible
26 Oct ? 04:39:37 10° SSE 04:42:01 16° ESE 04:44:27 10° ENE visible
27 Oct ? 04:17:46 10° SSE 04:19:53 15° ESE 04:22:02 10° ENE visible
28 Oct ? 03:55:59 10° SE 03:57:45 13° ESE 03:59:31 10° E visible
29 Oct ? 03:34:21 10° SE 03:35:37 11° ESE 03:36:54 10° E visible
29 Oct ? 05:08:23 10° SW 05:12:11 90° N 05:16:03 10° NE visible
30 Oct ? 03:13:19 10° ESE 03:13:28 10° ESE 03:13:37 10° ESE visible
30 Oct ? 04:46:12 10° SW 04:49:58 81° SE 04:53:50 10° NE visible
